Weather History for LFTH - October, 2012

Change the Weather History Date:

Monday, October 15, 2012

  Actual Average Record
Temperature  
Mean Temperature 60 °F -  
Max Temperature 66 °F 64 °F 77 °F (1999)
Min Temperature 55 °F 51 °F 46 °F (2004)
Degree Days  
Heating Degree Days 4    
Growing Degree Days 10 (Base 50)    
Moisture  
Dew Point 41 °F    
Average Humidity 55    
Maximum Humidity 94    
Minimum Humidity 26    
Precipitation  
Precipitation 0.00 in - - ()
Sea Level Pressure  
Sea Level Pressure 29.63 in    
Wind  
Wind Speed 7 mph ()    
Max Wind Speed 22 mph    
Max Gust Speed 34 mph    
Visibility 6.2 miles    
Events Rain    
Averages and records for this station are not official NWS values.
T = Trace of Precipitation, MM = Missing Value Source: Averaged Metar Reports

Daily Weather History Graph

Daily Weather History Graph

Search for Another Location

Airport or City:

Trip Planner

Search our weather history database for the weather conditions in past years. The results will help you decide how hot, cold, wet, or windy it might be!

Date:

Astronomy

Oct. 15, 2012 Rise Set
Actual Time 7:49 AM CEST 6:52 PM CEST
Civil Twilight 7:20 AM CEST 7:20 PM CEST
Nautical Twilight 6:47 AM CEST 7:53 PM CEST
Astronomical Twilight 6:14 AM CEST 8:26 PM CEST
Moon 7:41 AM CEST (10/15) 6:39 PM CEST (10/15)
Length of Visible Light 12h 00m
Length of Day
11h 02m
Waning Crescent, 0% of the Moon is Illuminated
Oct 15
Waning Crescent
Oct 15
New
Oct 22
First Quarter
Oct 29
Full
Nov 7
Last Quarter

Hourly Weather History & Observations

Time (CEST) Temp. Dew Point Humidity Pressure Visibility Wind Dir Wind Speed Gust Speed Precip Events Conditions
12:00 AM 59.0 °F 57.2 °F 94% 29.62 in 6.2 mi Calm Calm - N/A   Unknown
12:30 AM 59.0 °F 57.2 °F 94% 29.62 in 6.2 mi Variable 3.5 mph - N/A   Unknown
1:00 AM 59.0 °F 57.2 °F 94% 29.62 in 6.2 mi Variable 2.3 mph - N/A   Unknown
1:30 AM 59.0 °F 57.2 °F 94% 29.62 in 6.2 mi Variable 2.3 mph - N/A   Unknown
2:00 AM 59.0 °F 57.2 °F 94% 29.59 in 6.2 mi Variable 2.3 mph - N/A   Unknown
2:30 AM 57.2 °F 55.4 °F 94% 29.59 in 6.2 mi Variable 3.5 mph - N/A   Unknown
3:00 AM 57.2 °F 55.4 °F 94% 29.59 in 6.2 mi WNW 5.8 mph - N/A   Unknown
3:30 AM 57.2 °F 50.0 °F 77% 29.59 in 6.2 mi WNW 5.8 mph - N/A   Unknown
4:00 AM 57.2 °F 50.0 °F 77% 29.62 in 6.2 mi West 8.1 mph - N/A Rain Light Rain
4:30 AM 57.2 °F 50.0 °F 77% 29.62 in 6.2 mi NW 8.1 mph - N/A Rain Light Rain
5:00 AM 55.4 °F 50.0 °F 82% 29.62 in 6.2 mi Variable 2.3 mph - N/A   Unknown
5:30 AM 57.2 °F 50.0 °F 77% 29.62 in 6.2 mi Variable 2.3 mph - N/A   Unknown
6:00 AM 55.4 °F 50.0 °F 82% 29.62 in 6.2 mi Variable 3.5 mph - N/A   Unknown
6:30 AM 57.2 °F 50.0 °F 77% 29.62 in 6.2 mi West 4.6 mph - N/A   Unknown
7:00 AM 57.2 °F 48.2 °F 72% 29.59 in 6.2 mi Variable 2.3 mph - N/A   Unknown
7:30 AM 55.4 °F 50.0 °F 82% 29.59 in 6.2 mi Calm Calm - N/A   Unknown
8:00 AM 55.4 °F 48.2 °F 77% 29.59 in 6.2 mi NW 5.8 mph - N/A   Unknown
8:30 AM 57.2 °F 46.4 °F 67% 29.62 in 6.2 mi NW 4.6 mph - N/A   Unknown
9:00 AM 57.2 °F 44.6 °F 63% 29.62 in 6.2 mi WNW 6.9 mph - N/A   Unknown
9:30 AM 59.0 °F 48.2 °F 67% 29.62 in 6.2 mi WNW 5.8 mph - N/A   Unknown
10:00 AM 62.6 °F 46.4 °F 55% 29.62 in 6.2 mi Variable 3.5 mph - N/A   Unknown
10:30 AM 60.8 °F 48.2 °F 63% 29.62 in 6.2 mi NW 3.5 mph - N/A   Unknown
11:00 AM 64.4 °F 46.4 °F 52% 29.62 in 6.2 mi Variable 3.5 mph - N/A   Unknown
11:30 AM 64.4 °F 46.4 °F 52% 29.62 in 6.2 mi NW 9.2 mph - N/A   Unknown
12:00 PM 64.4 °F 46.4 °F 52% 29.62 in 6.2 mi West 10.4 mph - N/A   Unknown
12:30 PM 66.2 °F 46.4 °F 49% 29.62 in 6.2 mi West 6.9 mph - N/A   Unknown
1:00 PM 66.2 °F 44.6 °F 46% 29.62 in 6.2 mi North 13.8 mph - N/A   Unknown
1:30 PM 66.2 °F 39.2 °F 37% 29.62 in 6.2 mi WNW 17.3 mph - N/A   Unknown
2:00 PM 66.2 °F 41.0 °F 40% 29.62 in 6.2 mi WNW 16.1 mph - N/A   Unknown
2:30 PM 66.2 °F 33.8 °F 30% 29.62 in 6.2 mi NW 16.1 mph - N/A   Unknown
3:00 PM 66.2 °F 32.0 °F 28% 29.62 in 6.2 mi NW 18.4 mph - N/A   Unknown
3:30 PM 66.2 °F 32.0 °F 28% 29.59 in 6.2 mi NW 18.4 mph 29.9 mph N/A   Unknown
4:00 PM 66.2 °F 33.8 °F 30% 29.62 in 6.2 mi West 18.4 mph - N/A   Unknown
4:30 PM 64.4 °F 32.0 °F 30% 29.62 in 6.2 mi WNW 17.3 mph - N/A   Unknown
5:00 PM 64.4 °F 30.2 °F 28% 29.62 in 6.2 mi WNW 17.3 mph 31.1 mph N/A   Unknown
5:30 PM 62.6 °F 30.2 °F 30% 29.62 in 6.2 mi WNW 21.9 mph - N/A   Unknown
6:00 PM 62.6 °F 26.6 °F 26% 29.62 in 6.2 mi WNW 21.9 mph 34.5 mph N/A   Unknown
6:30 PM 60.8 °F 26.6 °F 27% 29.62 in 6.2 mi WNW 15.0 mph - N/A   Unknown
7:00 PM 59.0 °F 26.6 °F 29% 29.62 in 6.2 mi WNW 17.3 mph - N/A   Unknown
7:30 PM 59.0 °F 24.8 °F 27% 29.65 in 6.2 mi WNW 17.3 mph - N/A   Unknown
8:00 PM 59.0 °F 24.8 °F 27% 29.65 in 6.2 mi NW 15.0 mph 32.2 mph N/A   Unknown
8:30 PM 59.0 °F 24.8 °F 27% 29.65 in 6.2 mi NW 17.3 mph 31.1 mph N/A   Unknown
9:00 PM 59.0 °F 24.8 °F 27% 29.68 in 6.2 mi WNW 18.4 mph - N/A   Unknown
9:30 PM 57.2 °F 26.6 °F 31% 29.71 in 6.2 mi NW 13.8 mph - N/A   Unknown
10:00 PM 55.4 °F 26.6 °F 33% 29.71 in 6.2 mi NNW 11.5 mph - N/A   Unknown
10:30 PM 57.2 °F 26.6 °F 31% 29.74 in 6.2 mi NW 15.0 mph - N/A   Unknown
11:00 PM 57.2 °F 26.6 °F 31% 29.74 in 6.2 mi NW 18.4 mph 31.1 mph N/A   Unknown
11:30 PM 55.4 °F 26.6 °F 33% 29.77 in 6.2 mi Variable 4.6 mph - N/A   Unknown